TimeAEST,TemperatureF,Dew PointF,Humidity,Sea Level PressureIn,VisibilityMPH,Wind Direction,Wind SpeedMPH,Gust SpeedMPH,PrecipitationIn,Events,Conditions,WindDirDegrees,DateUTC
12:00 AM,71,60,61,30.14,,ESE,21.9,,,,,110,2013-08-29 14:00:00
12:00 AM,71.6,60.8,69,30.12,-9999.0,ESE,21.9,-,N/A,,Unknown,110,2013-08-29 14:00:00
12:30 AM,69.8,60.8,73,30.12,-9999.0,ESE,18.4,-,N/A,,Unknown,120,2013-08-29 14:30:00
1:00 AM,69.8,62.6,78,30.12,-9999.0,ESE,20.7,-,N/A,,Unknown,120,2013-08-29 15:00:00
1:30 AM,69.8,60.8,73,30.12,-9999.0,SE,20.7,-,N/A,,Unknown,130,2013-08-29 15:30:00
2:00 AM,69.8,59.0,68,30.12,-9999.0,ESE,21.9,-,N/A,,Unknown,120,2013-08-29 16:00:00
2:30 AM,69.8,59.0,68,30.12,-9999.0,ESE,16.1,-,N/A,,Unknown,120,2013-08-29 16:30:00
3:00 AM,70,62,70,30.11,,SE,18.4,,,,,130,2013-08-29 17:00:00
3:00 AM,69.8,62.6,78,30.09,-9999.0,SE,18.4,-,N/A,,Unknown,130,2013-08-29 17:00:00
3:30 AM,69.8,62.6,78,30.09,-9999.0,SE,20.7,-,N/A,,Unknown,130,2013-08-29 17:30:00
4:00 AM,69.8,62.6,78,30.09,-9999.0,SE,17.3,-,N/A,,Unknown,130,2013-08-29 18:00:00
4:30 AM,69.8,60.8,73,30.09,-9999.0,SE,19.6,-,N/A,,Unknown,130,2013-08-29 18:30:00
5:00 AM,69.8,60.8,73,30.09,-9999.0,ESE,19.6,-,N/A,,Unknown,120,2013-08-29 19:00:00
5:30 AM,69.8,60.8,73,30.12,-9999.0,SE,19.6,-,N/A,,Unknown,130,2013-08-29 19:30:00
6:00 AM,69.8,60.8,73,30.12,-9999.0,SE,18.4,-,N/A,,Unknown,130,2013-08-29 20:00:00
6:30 AM,69.8,60.8,73,30.15,-9999.0,SE,18.4,-,N/A,,Unknown,130,2013-08-29 20:30:00
7:00 AM,69.8,62.6,78,30.15,-9999.0,SE,18.4,-,N/A,,Unknown,130,2013-08-29 21:00:00
7:30 AM,71.6,60.8,69,30.15,-9999.0,SE,19.6,-,N/A,,Unknown,130,2013-08-29 21:30:00
8:00 AM,73.4,62.6,69,30.15,-9999.0,ESE,19.6,-,N/A,,Unknown,120,2013-08-29 22:00:00
8:30 AM,73.4,60.8,65,30.15,-9999.0,ESE,17.3,-,N/A,,Unknown,120,2013-08-29 22:30:00
9:00 AM,74,62,56,30.18,,ESE,17.3,,,,,120,2013-08-29 23:00:00
9:00 AM,73.4,60.8,65,30.18,-9999.0,ESE,17.3,-,N/A,,Unknown,120,2013-08-29 23:00:00
9:30 AM,73.4,62.6,69,30.18,-9999.0,ESE,17.3,-,N/A,,Unknown,120,2013-08-29 23:30:00
10:00 AM,75.2,62.6,65,30.18,-9999.0,ESE,17.3,-,N/A,,Unknown,120,2013-08-30 00:00:00
10:30 AM,75.2,60.8,61,30.15,-9999.0,ESE,18.4,-,N/A,,Unknown,120,2013-08-30 00:30:00
11:00 AM,75.2,62.6,65,30.15,-9999.0,ESE,19.6,-,N/A,,Unknown,120,2013-08-30 01:00:00
11:30 AM,75.2,62.6,65,30.15,-9999.0,ESE,18.4,-,N/A,,Unknown,120,2013-08-30 01:30:00
12:00 PM,75.2,62.6,65,30.12,-9999.0,ESE,18.4,-,N/A,,Unknown,120,2013-08-30 02:00:00
12:30 PM,75.2,62.6,65,30.12,-9999.0,SE,17.3,-,N/A,,Unknown,130,2013-08-30 02:30:00
1:00 PM,75.2,64.4,69,30.09,-9999.0,SE,17.3,-,N/A,,Unknown,140,2013-08-30 03:00:00
1:30 PM,73.4,62.6,69,30.09,-9999.0,SSE,19.6,-,N/A,,Unknown,150,2013-08-30 03:30:00
2:00 PM,73.4,64.4,73,30.09,-9999.0,SE,20.7,-,N/A,,Unknown,130,2013-08-30 04:00:00
2:30 PM,75.2,62.6,65,30.06,-9999.0,SE,19.6,-,N/A,,Unknown,130,2013-08-30 04:30:00
3:00 PM,73.4,64.4,73,30.06,-9999.0,SE,18.4,-,N/A,,Unknown,130,2013-08-30 05:00:00
3:30 PM,73.4,64.4,73,30.06,-9999.0,ESE,18.4,-,N/A,,Unknown,110,2013-08-30 05:30:00
4:00 PM,71.6,62.6,73,30.06,-9999.0,ESE,19.6,-,N/A,,Unknown,120,2013-08-30 06:00:00
4:30 PM,71.6,64.4,78,30.06,-9999.0,ESE,19.6,-,N/A,,Unknown,120,2013-08-30 06:30:00
5:00 PM,71.6,64.4,78,30.09,-9999.0,ESE,19.6,-,N/A,,Unknown,120,2013-08-30 07:00:00
5:30 PM,69.8,62.6,78,30.09,-9999.0,ESE,18.4,-,N/A,,Unknown,120,2013-08-30 07:30:00
6:00 PM,70,64,75,30.12,,ESE,18.4,,,,,120,2013-08-30 08:00:00
6:00 PM,69.8,64.4,83,30.09,-9999.0,ESE,18.4,-,N/A,,Unknown,120,2013-08-30 08:00:00
6:30 PM,69.8,62.6,78,30.12,-9999.0,ESE,18.4,-,N/A,,Unknown,120,2013-08-30 08:30:00
7:00 PM,69.8,62.6,78,30.12,-9999.0,ESE,18.4,-,N/A,,Unknown,120,2013-08-30 09:00:00
7:30 PM,69.8,64.4,83,30.12,-9999.0,ESE,19.6,-,N/A,,Unknown,120,2013-08-30 09:30:00
8:00 PM,69.8,62.6,78,30.15,-9999.0,ESE,19.6,-,N/A,,Unknown,110,2013-08-30 10:00:00
8:30 PM,69.8,64.4,83,30.15,-9999.0,ESE,18.4,-,N/A,,Unknown,110,2013-08-30 10:30:00
9:00 PM,70,63,73,30.16,,ESE,20.7,,,,,120,2013-08-30 11:00:00
9:00 PM,69.8,62.6,78,30.15,-9999.0,ESE,20.7,-,N/A,,Unknown,120,2013-08-30 11:00:00
9:30 PM,69.8,62.6,78,30.15,-9999.0,ESE,17.3,-,N/A,,Unknown,110,2013-08-30 11:30:00
10:00 PM,69.8,62.6,78,30.15,-9999.0,ESE,19.6,-,N/A,,Unknown,110,2013-08-30 12:00:00
10:30 PM,69.8,60.8,73,30.15,-9999.0,ESE,19.6,-,N/A,,Unknown,110,2013-08-30 12:30:00
11:00 PM,69.8,62.6,78,30.15,-9999.0,ESE,18.4,-,N/A,,Unknown,110,2013-08-30 13:00:00